Weather History for Tallahassee, FL

Change the Weather History Date:

Sunday, February 24, 2013

  Actual Average Record
Temperature  
Mean Temperature 67 °F 57 °F  
Max Temperature 76 °F 70 °F 83 °F (2012)
Min Temperature 58 °F 44 °F 24 °F (1964)
Degree Days  
Heating Degree Days 0    
Month to date heating degree days 233  
Since 1 July heating degree days 951  
Cooling Degree Days 2    
Month to date cooling degree days 16  
Year to date cooling degree days 50  
Growing Degree Days 16 (Base 50)    
Moisture  
Dew Point 56 °F    
Average Humidity 69    
Maximum Humidity 97    
Minimum Humidity 41    
Precipitation  
Precipitation 0.29 in 0.19 in 2.00 in (1942)
Month to date precipitation 6.96 4.09  
Year to date precipitation 7.81 8.43  
Sea Level Pressure  
Sea Level Pressure 29.94 in    
Wind  
Wind Speed 5 mph (NNE)    
Max Wind Speed 13 mph    
Max Gust Speed 15 mph    
Visibility 10 miles    
Events Rain , Hail , Thunderstorm    
T = Trace of Precipitation, MM = Missing Value Source: NWS Daily Summary

Daily Weather History Graph

Daily Weather History Graph

Search for Another Location

Airport:

Trip Planner

Search our weather history database for the weather conditions in past years. The results will help you decide how hot, cold, wet, or windy it might be!

Date:

Astronomy

Feb. 24, 2013 Rise Set
Actual Time 7:08 AM EST 6:32 PM EST
Civil Twilight 6:44 AM EST 6:57 PM EST
Nautical Twilight 6:16 AM EST 7:25 PM EST
Astronomical Twilight 5:48 AM EST 7:52 PM EST
Moon 5:43 PM EST (2/24) 6:03 AM EST (2/24)
Length of Visible Light 12h 12m
Length of Day
11h 24m
Waxing Gibbous, 99% of the Moon is Illuminated
Feb 24
Waxing Gibbous
Feb 25
Full
Mar 4
Last Quarter
Mar 11
New
Mar 19
First Quarter

Hourly Weather History & Observations

Time (EST) Temp. Dew Point Humidity Pressure Visibility Wind Dir Wind Speed Gust Speed Precip Events Conditions
12:02 AM 64.4 °F 62.6 °F 94% 29.88 in 10.0 mi Calm Calm - N/A   Mostly Cloudy
12:13 AM 64.4 °F 62.6 °F 94% 29.89 in 10.0 mi NW 3.5 mph - N/A   Mostly Cloudy
12:53 AM 64.9 °F 62.1 °F 90% 29.91 in 10.0 mi NW 8.1 mph - N/A   Overcast
1:41 AM 64.4 °F 62.6 °F 94% 29.91 in 10.0 mi NW 3.5 mph - N/A   Overcast
1:53 AM 64.9 °F 62.1 °F 90% 29.92 in 10.0 mi Calm Calm - N/A   Overcast
2:14 AM 64.4 °F 62.6 °F 94% 29.92 in 10.0 mi NNW 3.5 mph - N/A   Overcast
2:25 AM 64.4 °F 62.6 °F 94% 29.92 in 10.0 mi NNW 5.8 mph - N/A   Overcast
2:51 AM 62.6 °F 59.0 °F 88% 29.92 in 10.0 mi NNW 15.0 mph - N/A   Overcast
2:53 AM 61.0 °F 59.0 °F 93% 29.92 in 10.0 mi NNW 12.7 mph - N/A   Overcast
3:32 AM 60.8 °F 55.4 °F 82% 29.93 in 10.0 mi North 8.1 mph - N/A   Overcast
3:39 AM 60.8 °F 55.4 °F 82% 29.92 in 10.0 mi NNW 6.9 mph - N/A   Overcast
3:53 AM 60.1 °F 57.0 °F 90% 29.92 in 10.0 mi North 4.6 mph - N/A   Overcast
4:18 AM 59.0 °F 55.4 °F 88% 29.91 in 10.0 mi North 8.1 mph - N/A   Overcast
4:51 AM 59.0 °F 55.4 °F 88% 29.93 in 10.0 mi North 6.9 mph - N/A   Overcast
4:53 AM 57.9 °F 55.0 °F 90% 29.92 in 10.0 mi North 5.8 mph - N/A   Overcast
5:53 AM 57.9 °F 54.0 °F 87% 29.95 in 10.0 mi North 3.5 mph - N/A   Overcast
6:53 AM 57.9 °F 54.0 °F 87% 29.97 in 10.0 mi NNE 3.5 mph - N/A   Overcast
7:29 AM 57.2 °F 53.6 °F 88% 29.96 in 10.0 mi NE 4.6 mph - N/A   Overcast
7:53 AM 57.9 °F 54.0 °F 87% 29.97 in 10.0 mi NNE 3.5 mph - N/A   Overcast
8:53 AM 60.1 °F 52.0 °F 75% 29.99 in 10.0 mi NE 6.9 mph - N/A   Mostly Cloudy
9:53 AM 61.0 °F 52.0 °F 72% 30.00 in 10.0 mi East 3.5 mph - N/A   Scattered Clouds
10:53 AM 63.0 °F 53.1 °F 70% 30.01 in 10.0 mi ESE 3.5 mph - N/A   Mostly Cloudy
11:53 AM 69.1 °F 52.0 °F 54% 29.98 in 10.0 mi ENE 5.8 mph - N/A   Scattered Clouds
12:53 PM 72.0 °F 50.0 °F 46% 29.97 in 10.0 mi NE 6.9 mph - N/A   Partly Cloudy
1:53 PM 73.9 °F 50.0 °F 43% 29.95 in 10.0 mi East 8.1 mph - N/A   Partly Cloudy
2:53 PM 75.9 °F 50.0 °F 40% 29.93 in 10.0 mi East 4.6 mph - N/A   Partly Cloudy
3:53 PM 75.0 °F 51.1 °F 43% 29.91 in 10.0 mi East 4.6 mph - N/A   Partly Cloudy
4:07 PM 75.2 °F 50.0 °F 41% 29.91 in 10.0 mi East 4.6 mph - N/A Thunderstorm Thunderstorm
4:53 PM 73.9 °F 50.0 °F 43% 29.90 in 10.0 mi ENE 6.9 mph - N/A Thunderstorm Thunderstorm
5:17 PM 66.2 °F 55.4 °F 68% 29.94 in 1.2 mi Variable 4.6 mph - 0.17 in Rain , Hail , Thunderstorm Heavy Thunderstorms with Hail
5:24 PM 64.4 °F 57.2 °F 77% 29.94 in 10.0 mi West 5.8 mph - 0.18 in Rain , Thunderstorm Light Thunderstorms and Rain
5:58 PM 62.6 °F 59.0 °F 88% 29.96 in 6.0 mi SW 4.6 mph - 0.22 in Rain , Thunderstorm Thunderstorms and Rain
6:53 PM 63.0 °F 60.1 °F 90% 29.93 in 10.0 mi NE 3.5 mph - 0.29 in   Overcast
7:53 PM 63.0 °F 60.1 °F 90% 29.94 in 10.0 mi Calm Calm - N/A   Partly Cloudy
8:53 PM 62.1 °F 57.9 °F 86% 29.93 in 10.0 mi NE 3.5 mph - N/A   Mostly Cloudy
9:53 PM 62.1 °F 55.9 °F 80% 29.93 in 10.0 mi NNE 4.6 mph - N/A   Overcast
10:53 PM 62.1 °F 55.0 °F 78% 29.93 in 10.0 mi ESE 3.5 mph - N/A   Overcast
11:11 PM 62.6 °F 55.4 °F 77% - 10.0 mi ESE 4.6 mph - 0.00 in Rain , Thunderstorm Light Rain
11:34 PM 62.6 °F 55.4 °F 77% - 10.0 mi NE 3.5 mph - 0.00 in   Overcast
11:53 PM 62.1 °F 54.0 °F 75% - 10.0 mi NE 3.5 mph - 0.00 in Rain Light Rain